sat.trackr.live / text

‹ back to catalog

STARLINK-34568

NORAD 64717 · 2025-142X

PAYLOAD ACTIVE UNKNOWN

§ Identity

Operator
Country
US
Launch date
2025-06-28
Launch site
AFWTR
Launch vehicle
Mass (kg)
RCS (m²)

Purposes: comms

External: N2YO · Heavens-Above · Gunter

§ Orbital elements

Epoch: 2026-09-20T16:00:01.999584Z

Period
94.09 min
Inclination
70.0004°
Eccentricity
0.0003154
Mean motion
15.30395193 rev/d
Perigee alt
472.5 km
Apogee alt
476.8 km
Semi-major
6,852.8 km
B*
3.0559e-3
RAAN
180.5062°
Arg perigee
267.1171°
Mean anomaly
153.1276°
Rev number
578

§ Raw data

STARLINK-345681 64717U 25142X   26263.66668981  .00091049  00000+0  30559-2 0  99942 64717  70.0004 180.5062 0003154 267.1171 153.1276 15.30395193  5782

JSON: /api/v1/satellites/64717 · /tle

For live sub-satellite position, see the globe view (requires WebGL).

§ Visibility from observer

Set your observer location to see the next 7 days of passes ≥ 10°. The values pass through the URL so the page stays shareable.

No JS? Fill the form by hand. The geolocation button needs JavaScript.